Location: Boissi�res
(45.2500°N, 2.3667°E)
Time: 21:05:39
(UTC+00:00)

Tiangong - Pass Details

Date: 06 October 2021
Orbit: 382 x 385 km, 41.5° (Epoch: 16 October)

Event Time Altitude Azimuth Distance (km) Brightness Sun altitude
Exits shadow 05:14:42 - 244° (WSW) 1,493 3.5 -7.9°
Reaches altitude 10° 05:15:08 10° 237° (WSW) 1,397 3.4 -7.8°
Maximum altitude 05:16:41 13° 208° (SSW) 1,226 3.3 -7.6°
Drops below altitude 10° 05:18:15 10° 178° (S) 1,393 3.9 -7.3°
Sets 05:21:07 0° 149° (SSE) 2,241 5.4 -6.8°
